Wind_Speed
14 7 8 9 8 11 12 11 9 9 11 10 8 7 10 9 8 10 11 12 11 11 14 16 12 11 11 8 7 12 22 21 17 20 20 22 25 26 29 28 25 24 24 24 19 15 19 22 22 24 26 28 27 27 27 24 22 24 26 27 27 26 25 25 23 22 21 19 18 17 16 15 14 14 12 11 10 8 7 6 5 5 5 4 4 8
15 9 9 10 9 11 13 12 11 11 13 12 8 7 7 9 10 12 15 14 12 10 12 16 12 9 12 9 9 13 14 14 15 18 19 22 23 23 27 26 23 20 21 24 21 19 23 24 24 27 30 30 29 30 29 25 25 25 26 28 27 26 26 24 23 22 20 18 17 17 18 17 15 14 12 11 10 8 9 9 8 8 8 7 8 10
12 9 9 11 10 11 12 13 12 11 13 12 8 6 5 6 8 11 16 15 10 9 9 15 12 7 12 12 11 13 10 14 21 23 25 27 25 24 27 27 24 21 22 25 23 23 26 27 28 29 29 30 30 31 30 27 27 27 27 27 26 27 26 24 24 22 19 18 18 18 19 18 16 15 13 12 11 10 11 10 9 9 10 10 11 10
8 8 10 12 12 13 11 13 14 11 10 9 7 6 6 7 7 7 12 13 9 9 6 13 12 6 8 8 6 8 12 16 18 23 27 29 28 27 28 29 27 26 28 27 26 28 30 31 31 31 31 31 31 32 31 29 28 28 28 27 26 26 25 24 23 21 19 19 19 20 19 17 16 16 14 13 12 11 10 9 8 9 11 13 12 10
6 8 13 14 13 15 12 12 15 10 7 9 9 7 7 10 10 8 9 7 7 9 6 10 9 4 7 9 5 6 16 17 16 21 21 21 25 26 26 29 28 26 29 30 31 32 33 33 33 33 32 33 33 33 32 30 29 28 28 27 25 25 24 23 23 22 21 20 21 21 19 18 17 17 16 16 14 10 8 7 7 7 9 11 10 9
7 11 17 16 13 15 13 12 15 11 6 8 10 10 11 13 12 13 12 3 6 7 4 8 5 4 6 12 10 7 12 11 11 15 15 17 22 23 24 29 28 24 25 29 33 33 33 34 34 34 34 34 34 34 32 30 29 29 28 26 25 24 24 23 22 21 21 20 21 21 20 20 19 19 18 16 13 9 7 5 5 6 6 7 7 7
6 13 17 15 13 15 14 11 14 14 7 6 9 10 14 16 14 14 12 2 5 6 5 6 5 1 3 7 9 9 12 10 9 9 12 17 21 20 21 24 25 22 21 23 27 27 28 30 33 34 34 34 33 33 33 31 30 29 28 26 25 25 25 23 22 21 20 20 21 20 19 19 18 19 17 13 9 7 6 4 5 6 7 8 6 3
9 15 16 15 14 13 13 11 12 15 9 6 8 11 13 15 16 15 10 4 5 5 5 6 7 5 2 3 5 10 12 10 9 8 11 17 21 20 19 20 22 22 21 20 20 20 20 24 30 34 34 33 31 30 31 31 30 29 27 25 25 26 25 24 23 22 20 20 21 21 19 17 16 16 14 12 9 6 5 5 6 8 8 7 3 4
10 14 16 17 14 10 11 10 11 14 11 7 9 12 12 12 14 12 7 5 2 4 5 5 7 5 2 3 6 10 11 9 9 10 11 15 21 23 22 22 23 24 23 22 22 19 17 20 28 33 34 31 28 28 30 31 30 28 26 24 24 25 24 23 23 22 20 20 20 20 18 17 17 15 14 12 10 7 7 7 7 9 7 3 2 3
9 13 17 17 13 9 10 11 12 13 9 7 10 12 11 10 9 7 6 5 1 3 6 6 7 5 1 4 7 7 7 8 9 9 10 14 22 24 24 26 25 25 25 23 23 21 19 22 27 32 31 29 28 27 28 29 28 26 25 24 24 24 23 23 23 22 21 20 18 17 17 18 18 17 14 12 9 8 8 7 6 7 5 2 4 3
11 16 17 14 13 10 10 12 13 12 9 9 12 10 8 7 4 4 5 2 2 2 7 8 9 7 3 4 6 7 10 13 12 9 10 13 20 23 25 28 27 26 27 25 24 23 24 23 26 31 29 27 28 26 26 27 26 25 24 24 24 23 24 24 23 23 21 19 17 16 17 18 17 16 13 11 10 9 8 6 3 2 3 6 6 4
13 15 12 12 17 14 9 11 13 13 10 9 9 6 5 5 3 2 3 1 2 4 6 9 9 7 5 5 7 11 13 16 16 14 14 14 19 23 25 30 31 31 31 31 29 29 29 24 25 31 29 27 27 25 25 26 25 25 24 25 26 25 25 24 23 22 20 19 18 17 18 17 15 13 12 11 10 10 9 5 3 4 7 8 7 5
11 11 9 10 18 18 10 8 11 11 10 10 7 5 4 3 3 3 3 2 2 5 5 8 6 4 5 6 13 17 12 14 17 17 20 20 22 25 27 31 35 36 36 35 34 33 33 29 30 35 32 27 26 26 26 26 26 26 26 26 27 27 25 23 22 22 21 21 21 19 19 17 15 13 12 11 11 11 9 7 8 10 10 8 6 5
6 9 12 11 14 18 14 8 9 8 8 10 8 5 5 4 4 4 3 2 2 5 5 2 3 2 5 5 15 19 14 19 23 24 29 30 30 32 33 36 37 38 38 38 38 37 37 35 34 37 35 29 27 28 27 26 26 27 27 27 27 26 25 24 23 23 23 23 22 20 18 16 14 14 13 12 12 12 11 11 12 13 11 9 7 5
6 7 14 12 9 16 16 9 8 6 6 9 8 5 4 4 4 3 2 3 3 4 5 2 3 3 5 4 12 17 16 23 27 28 32 31 32 35 34 36 37 35 35 37 38 38 38 37 35 36 36 32 29 29 29 27 26 27 28 27 27 27 26 25 24 24 24 23 20 19 16 14 13 13 12 12 13 13 13 14 15 15 13 10 7 5
7 6 11 11 7 14 14 8 9 7 5 7 7 5 6 5 5 3 3 4 4 1 4 1 1 4 5 3 5 14 14 17 22 26 30 27 29 33 32 33 35 33 33 34 35 36 37 36 34 34 36 33 31 30 30 29 28 28 28 28 28 28 26 26 25 24 23 22 19 17 14 12 12 13 12 13 15 15 15 16 17 17 15 11 7 5
7 4 11 13 9 15 16 10 11 10 5 5 6 6 6 4 6 5 3 2 4 2 3 3 3 4 3 5 3 14 13 12 17 22 26 28 30 32 31 33 33 32 35 35 34 35 35 33 33 34 36 35 33 31 30 31 29 29 30 30 29 29 28 26 25 23 22 20 18 15 13 13 13 14 14 14 15 15 16 17 18 18 16 10 5 6
5 3 12 17 10 16 21 11 6 8 8 6 5 6 4 3 2 4 4 2 3 2 3 4 5 3 0 3 3 15 15 12 15 17 20 25 28 29 30 33 34 35 37 36 34 34 33 33 35 37 36 34 32 32 31 32 31 30 31 31 31 31 29 27 24 22 20 17 15 13 12 13 14 15 15 14 15 16 16 17 17 16 12 7 10 12
5 3 10 16 9 12 14 5 3 5 7 7 6 6 6 4 3 1 3 4 5 3 2 4 5 3 2 3 5 13 15 14 15 16 18 20 23 25 27 31 32 33 34 34 33 35 34 35 37 37 34 32 32 33 33 33 32 32 33 32 31 31 28 25 22 20 18 15 13 12 12 13 14 15 15 15 16 17 16 14 13 12 12 14 15 14
5 3 6 12 9 6 5 3 2 5 5 6 6 6 5 4 3 3 3 4 5 4 2 3 4 3 3 5 7 9 14 17 16 16 17 17 22 27 29 31 32 32 33 34 35 37 37 38 37 35 33 32 34 34 34 34 34 34 34 33 31 29 26 23 20 18 17 14 13 12 13 13 13 14 15 16 16 16 14 12 11 15 18 17 15 13
4 3 4 7 8 6 5 5 6 5 4 6 5 6 6 3 3 3 2 3 5 4 4 2 3 5 5 6 9 10 16 19 19 17 16 18 25 30 33 34 34 35 35 35 38 38 37 36 35 34 33 33 34 34 33 34 35 35 34 33 31 28 25 23 20 18 17 15 13 13 14 14 13 14 15 16 15 15 13 12 16 20 19 17 14 12
4 4 5 5 5 6 6 5 7 6 6 6 3 4 6 4 4 4 2 2 4 4 5 5 4 6 5 3 7 12 16 18 21 20 17 22 30 33 35 37 38 39 38 39 41 39 37 36 35 34 33 33 33 35 35 35 36 35 33 32 30 27 25 23 21 19 16 15 14 14 15 14 14 14 15 14 14 13 12 15 21 21 19 18 14 10
3 4 6 6 5 5 6 8 11 11 8 9 5 4 6 5 4 5 3 4 3 3 5 5 3 6 6 4 5 10 13 19 26 26 21 26 34 36 36 36 38 40 40 41 42 40 39 38 36 35 35 34 33 35 37 37 37 35 33 31 28 26 24 22 20 18 16 15 14 14 14 14 14 15 15 15 14 13 15 19 21 20 20 18 14 12
2 3 5 6 4 5 6 6 10 11 6 7 7 5 5 6 5 5 4 5 3 3 4 4 3 5 7 5 2 8 10 16 24 27 25 25 28 33 35 35 37 38 38 40 41 40 39 39 39 38 38 37 35 36 38 38 37 35 32 30 27 25 23 21 20 18 16 15 15 14 15 16 16 16 16 15 14 14 18 21 22 21 19 17 15 15
3 2 5 6 4 5 6 4 6 10 6 3 5 6 5 5 8 7 4 2 1 3 5 6 3 6 6 5 7 12 11 11 15 23 28 27 26 30 33 33 36 37 37 39 40 39 39 40 40 40 40 39 36 36 38 37 35 34 32 30 28 26 24 23 21 19 17 16 16 16 17 18 17 16 16 16 15 16 19 22 23 21 18 17 16 14
5 2 4 7 6 6 7 5 4 5 3 1 3 7 7 6 10 10 3 3 2 4 3 6 4 5 5 6 10 12 12 10 12 18 25 27 28 30 31 33 36 37 38 40 40 39 40 41 41 40 40 40 38 38 38 37 35 34 31 28 27 25 24 23 20 17 17 16 16 17 18 18 17 16 16 17 17 18 19 20 22 20 17 17 17 15
2 2 3 6 5 5 5 3 2 4 2 2 5 7 7 7 7 7 4 4 4 2 1 3 5 3 3 6 9 8 10 12 10 13 17 20 23 26 29 32 35 36 37 39 39 40 43 41 39 40 41 40 39 38 38 37 35 33 30 27 25 24 23 20 18 17 17 17 18 19 19 18 17 16 17 19 20 20 18 19 20 19 18 18 16 14
4 2 4 3 3 5 5 4 5 7 5 3 5 6 7 9 5 6 5 6 5 4 3 5 6 7 3 3 9 8 10 12 11 13 19 22 25 28 29 32 34 34 34 36 39 42 44 39 34 36 40 42 41 39 37 36 34 31 30 27 25 24 21 19 18 17 17 18 20 21 21 20 19 18 19 21 21 21 19 19 19 19 18 16 15 13
4 3 6 3 3 3 6 8 7 8 7 5 6 7 8 11 7 6 6 6 7 6 4 5 7 7 6 6 11 10 10 13 15 20 26 28 30 32 32 31 32 33 33 35 38 41 42 36 30 34 40 43 43 40 38 36 33 31 29 27 26 23 21 19 18 18 18 20 22 23 23 21 20 20 21 24 24 22 20 18 18 17 16 14 14 15
4 2 2 3 2 4 5 9 11 13 10 7 8 8 8 11 8 7 5 5 7 7 6 7 7 4 5 6 11 13 16 19 21 25 28 29 30 32 32 32 32 33 33 34 35 36 36 32 29 34 40 42 42 41 38 36 34 31 29 28 26 23 21 21 19 19 20 22 24 24 23 23 22 22 25 27 25 22 22 20 18 17 16 14 14 15
4 1 1 4 1 4 3 1 8 15 13 10 11 10 8 10 8 6 3 3 4 6 4 7 6 1 3 4 10 14 20 22 20 21 24 26 29 32 30 29 30 29 29 30 32 32 31 30 30 36 40 39 38 39 38 35 32 30 29 29 26 24 23 22 20 21 23 24 25 25 25 25 24 24 28 29 26 24 24 22 19 17 15 14 15 15
4 2 4 4 1 4 2 7 4 4 8 9 11 10 8 8 6 5 4 2 4 6 4 6 4 0 1 7 9 10 15 17 15 17 21 24 28 31 29 27 27 28 28 30 31 32 33 35 38 43 45 41 37 37 36 34 32 31 31 30 28 26 25 22 22 24 25 25 25 25 26 27 27 27 29 28 26 26 24 22 20 18 15 14 14 15
4 3 3 2 2 2 2 6 5 6 6 4 8 7 6 7 5 4 4 4 4 5 6 3 3 6 6 9 10 7 8 11 14 19 24 25 28 32 31 30 31 33 34 34 35 35 36 39 41 44 45 43 40 38 36 34 34 34 33 30 28 27 24 23 24 26 25 24 24 24 26 28 29 29 28 26 26 25 24 22 21 18 16 15 15 15
4 4 1 2 3 2 4 6 5 5 4 4 7 4 3 5 7 6 4 6 5 4 5 5 6 8 8 9 10 9 8 12 19 25 30 31 30 31 32 33 34 35 35 35 37 38 38 40 42 43 43 43 42 40 37 36 36 35 33 31 30 27 25 25 25 25 25 24 23 23 25 29 31 30 28 27 26 26 23 21 19 17 16 16 16 16
4 4 1 0 3 2 4 7 6 2 2 6 7 5 3 2 8 8 5 6 8 7 6 7 8 8 8 10 13 15 15 18 23 27 32 34 34 33 34 35 34 34 34 34 37 38 38 41 43 43 43 43 44 42 39 38 37 35 33 33 31 28 26 25 24 25 25 24 24 24 27 30 30 30 28 27 26 25 23 21 19 17 17 18 17 16
4 3 1 1 3 2 3 4 3 3 4 5 6 6 5 5 3 6 4 4 7 10 8 7 8 7 8 13 19 22 22 20 19 21 28 33 34 34 35 37 36 35 34 35 36 37 39 42 44 44 43 44 44 43 40 39 37 35 35 34 31 27 25 24 25 27 27 26 26 27 29 30 30 29 27 25 25 24 22 20 18 17 18 19 18 17
5 3 1 2 2 3 4 2 1 1 4 5 5 3 2 2 1 5 4 5 5 8 9 8 7 6 8 14 21 26 24 18 11 10 19 27 30 30 33 36 35 35 34 34 34 37 41 43 44 45 43 43 43 40 38 38 37 36 37 34 29 26 25 26 28 28 28 28 28 29 30 30 30 28 26 25 24 23 21 20 19 19 20 20 19 17
4 3 3 3 1 3 5 2 1 3 2 4 4 2 1 2 3 3 6 3 6 1 7 9 9 9 9 11 17 22 20 12 4 6 15 22 21 23 29 33 34 35 37 37 37 40 43 43 44 46 43 41 40 38 38 38 38 37 35 31 28 28 28 30 30 29 29 30 30 29 30 30 28 26 26 25 23 23 22 21 20 20 21 20 18 17
4 3 5 4 1 2 5 3 2 1 4 6 3 4 5 6 6 4 6 2 8 8 3 4 9 12 13 15 18 17 12 6 4 7 17 22 19 19 26 33 34 35 38 40 40 41 42 43 44 45 42 41 41 40 40 40 39 37 34 30 28 30 31 32 31 31 32 31 29 30 31 30 27 26 26 25 23 23 22 21 21 22 20 18 16 15
0 2 4 4 1 1 3 2 1 1 4 5 3 3 4 4 6 5 4 5 7 10 14 6 8 17 20 23 20 12 7 6 8 12 20 24 21 20 24 30 33 35 37 40 41 41 42 43 43 43 42 41 41 39 38 37 36 34 31 28 29 31 33 33 32 32 32 31 30 31 30 28 26 26 26 25 24 23 22 22 22 21 19 18 16 16
2 3 3 4 1 1 3 3 1 2 4 5 3 2 3 3 6 5 6 8 6 9 15 7 15 23 24 22 16 7 5 9 16 22 26 25 23 22 23 26 29 31 34 38 40 41 43 43 42 42 41 39 37 35 34 33 32 30 28 28 30 31 33 33 33 33 32 31 31 30 28 26 26 26 25 24 24 24 23 22 22 20 19 19 18 17
1 1 2 3 0 2 3 4 2 2 4 3 1 7 8 5 2 3 4 2 6 11 15 15 18 18 17 18 16 12 11 15 23 30 28 25 25 25 24 25 28 29 32 37 40 42 43 41 40 39 37 35 33 32 32 31 30 28 28 29 31 31 32 34 33 33 33 32 31 29 28 28 27 26 26 25 24 24 23 22 21 20 19 19 18 17
3 2 0 2 2 0 1 4 4 2 5 1 4 6 6 4 4 5 1 10 14 16 19 22 22 20 19 19 18 18 21 25 29 30 27 25 25 26 25 26 28 31 33 36 38 39 39 38 35 34 32 31 30 30 31 30 29 28 28 29 31 33 33 33 33 32 33 33 32 30 29 28 28 27 26 25 25 24 24 23 22 20 19 18 18 19
1 2 2 3 1 1 1 2 3 4 2 5 7 4 3 6 6 6 8 12 15 16 19 21 22 22 22 21 19 21 25 28 29 27 26 26 25 26 27 28 29 32 34 36 37 36 35 35 34 32 31 30 30 30 30 29 27 28 28 29 33 35 33 32 32 32 33 34 32 30 29 29 28 27 26 25 25 26 26 24 22 20 18 18 19 20
1 4 5 1 2 2 4 1 3 3 9 16 14 11 12 13 13 15 15 14 14 13 15 17 19 20 22 21 20 21 23 26 27 26 26 27 26 27 29 29 31 34 35 37 37 35 34 34 34 33 32 30 29 29 29 28 27 28 28 31 36 37 34 33 33 33 33 33 31 29 30 30 28 26 25 25 27 27 26 24 22 20 18 19 20 20
0 3 5 3 3 3 6 8 7 8 10 19 18 15 17 16 14 16 17 16 15 13 12 15 17 18 18 18 19 20 21 23 26 25 25 26 27 27 29 30 32 34 35 36 36 35 35 35 34 34 32 29 28 28 29 30 29 29 30 34 36 35 35 35 35 33 32 32 30 30 31 30 27 25 25 27 28 27 25 23 21 20 20 20 20 20
4 6 4 3 5 3 3 7 5 6 8 12 17 15 15 16 15 15 15 14 13 14 13 13 14 13 13 13 16 18 19 22 26 26 26 27 27 27 29 31 33 34 33 33 34 35 36 36 35 34 32 31 30 30 30 31 31 30 32 35 36 35 36 36 36 34 33 32 31 31 30 28 26 26 28 29 28 26 22 20 19 20 21 21 20 20
4 7 5 2 5 5 2 2 6 4 6 12 17 15 12 13 12 12 13 13 12 12 12 11 11 10 10 10 12 15 17 21 26 28 28 27 27 27 28 30 32 32 31 32 35 36 36 36 36 34 33 32 32 31 30 31 31 31 33 35 36 36 36 37 36 35 34 33 33 31 28 26 27 29 31 30 28 25 22 21 21 21 21 20 18 18
3 3 3 2 5 7 4 1 5 7 8 11 15 14 11 12 11 10 10 11 12 11 10 10 9 8 8 8 9 15 19 21 25 29 29 27 26 27 28 29 30 31 32 34 36 36 35 35 34 33 33 33 33 32 31 32 33 34 34 36 37 37 38 37 36 35 34 33 32 29 27 28 30 32 32 31 28 26 25 24 22 21 19 18 16 15
3 2 1 4 5 3 2 2 2 4 3 7 12 12 10 10 10 9 9 10 10 9 8 9 8 7 7 8 10 16 19 21 24 27 27 27 26 26 27 29 31 33 34 36 37 37 36 35 33 33 34 34 33 32 31 32 34 35 35 37 38 38 39 37 36 35 34 32 30 28 29 31 33 32 32 31 30 29 28 25 22 20 19 19 17 16
4 2 2 5 5 3 4 4 5 8 8 9 11 10 8 7 7 8 9 9 8 8 7 7 7 7 7 8 9 11 14 17 22 23 22 23 24 24 26 30 33 35 36 37 38 37 35 34 33 33 34 33 33 32 30 29 33 35 36 37 37 37 38 37 37 37 34 31 30 31 32 34 34 33 33 32 31 31 30 27 25 23 21 19 19 18
Wind_Direction
206 217 221 212 202 199 208 216 215 218 228 234 222 204 202 209 236 241 242 235 203 189 204 208 211 198 174 157 162 134 112 109 115 117 119 118 122 134 140 144 150 155 161 162 166 175 175 171 167 166 167 167 171 174 174 175 177 175 174 174 172 170 168 165 165 166 169 167 165 165 164 161 155 149 151 153 155 156 160 162 152 173 211 222 225 246
205 221 218 209 204 198 204 214 218 221 233 239 232 227 209 203 222 229 240 241 205 193 202 203 212 197 174 163 161 155 133 130 139 135 130 124 128 139 145 152 158 156 159 163 170 176 173 174 172 169 168 169 172 174 175 175 173 172 172 169 164 162 163 164 166 166 167 164 161 161 159 157 152 148 152 155 157 162 169 170 173 193 209 213 231 244
207 222 208 202 206 207 202 207 219 225 231 240 238 247 251 223 223 223 238 247 211 195 194 191 210 206 179 171 164 171 158 151 157 151 143 138 139 146 152 157 159 158 161 167 172 171 172 175 173 172 172 173 174 174 174 172 171 170 168 165 161 160 162 166 166 165 165 162 159 159 159 158 153 151 154 155 162 171 175 175 184 205 214 222 238 246
204 212 199 201 206 210 204 196 214 231 233 240 230 229 258 249 242 225 238 248 204 181 168 179 204 212 170 159 147 148 122 128 147 146 144 148 152 155 157 158 159 159 163 168 171 170 173 175 175 176 176 176 177 175 173 170 170 171 167 164 162 162 164 165 165 164 163 162 162 161 158 157 154 154 156 161 168 173 177 189 208 226 233 236 240 242
207 185 192 209 207 204 205 193 205 222 230 239 232 223 241 247 252 246 240 242 181 182 165 159 191 231 152 138 136 121 107 115 136 138 142 148 151 156 158 161 160 159 166 168 166 168 173 176 177 178 176 178 178 175 172 171 172 172 168 166 164 163 164 165 165 163 164 165 165 162 155 153 157 159 164 169 168 167 180 208 233 249 249 244 240 241
209 181 191 212 208 197 204 201 203 208 217 239 234 225 235 248 256 252 248 234 138 202 199 135 158 260 170 146 155 142 110 121 139 136 143 143 147 155 159 165 164 161 171 170 163 167 173 175 178 179 178 180 179 175 172 172 175 174 170 167 166 165 166 167 166 165 166 166 165 163 157 158 165 167 168 169 166 173 195 222 260 271 261 257 258 253
204 184 192 210 205 196 207 212 204 201 204 233 230 223 233 245 256 264 267 241 142 209 218 146 142 200 188 160 157 140 122 138 149 140 149 149 152 156 157 167 169 162 165 168 166 168 173 177 178 179 179 180 181 177 174 175 178 177 173 170 169 168 168 169 168 166 165 164 164 166 166 168 173 170 165 161 162 180 203 231 276 284 281 278 266 227
200 188 191 204 205 199 207 214 202 196 201 223 224 226 232 239 249 264 279 255 181 189 209 182 147 131 181 192 148 124 117 131 149 150 155 158 159 154 150 159 163 160 156 160 170 170 174 181 181 180 181 181 183 180 176 177 178 178 176 174 173 170 168 168 167 165 165 164 164 167 172 174 174 171 162 158 164 187 220 249 275 282 286 284 250 155
200 193 186 195 207 206 205 212 204 197 203 216 221 232 235 234 241 252 271 274 203 155 216 205 147 138 186 170 126 117 123 137 155 164 166 167 165 154 147 151 157 162 160 158 167 171 176 186 182 181 182 182 182 181 179 178 178 179 177 176 175 170 168 168 168 167 165 166 165 167 174 175 171 170 164 164 175 198 227 253 273 277 281 279 205 173
202 210 192 190 206 209 199 208 211 203 200 210 225 237 238 233 240 244 253 276 24 147 228 217 166 145 140 172 150 136 151 166 170 177 179 174 168 158 151 155 158 161 161 158 158 165 181 191 186 182 181 181 180 182 183 179 178 178 176 176 175 171 169 169 169 169 167 166 167 169 175 175 170 167 167 172 182 200 226 245 261 269 279 267 232 210
205 215 204 194 203 206 196 201 215 215 196 201 225 240 242 239 242 241 245 268 71 225 241 218 185 160 179 216 175 173 187 177 168 174 181 176 169 164 159 160 162 161 164 162 157 168 186 194 191 186 184 182 179 182 182 177 177 178 176 175 172 171 171 170 170 170 168 166 169 174 175 175 173 170 173 181 185 200 222 239 254 261 272 264 240 219
206 207 209 194 193 200 201 196 213 221 205 205 221 217 221 245 251 254 274 53 110 255 233 202 190 166 183 224 203 209 200 172 167 173 176 173 168 170 167 163 163 163 167 168 165 172 183 189 192 188 187 186 179 178 180 178 179 179 178 176 173 172 171 170 169 168 167 167 171 174 173 174 176 174 178 182 188 206 218 214 186 194 234 249 233 222
209 201 204 187 186 197 204 189 205 219 206 207 218 186 170 211 217 219 244 215 200 260 230 182 179 197 210 206 199 208 199 169 172 173 170 168 163 167 170 166 162 164 168 169 166 171 179 184 187 185 185 185 179 178 179 178 179 181 180 176 174 173 171 168 166 165 167 168 169 170 169 172 174 174 177 182 195 213 212 190 190 207 227 237 231 233
205 199 198 187 182 197 205 189 194 209 191 200 211 171 155 176 192 204 213 197 214 279 276 157 111 233 253 215 192 195 186 173 176 171 168 167 161 163 170 170 166 166 168 167 165 171 179 181 182 182 181 180 178 180 181 179 179 180 178 177 176 173 169 167 165 167 169 169 169 169 169 171 174 177 184 194 207 210 197 190 202 213 223 234 242 238
188 192 194 193 175 188 205 200 182 182 170 200 211 172 179 186 168 179 171 169 207 269 295 356 75 208 234 226 190 184 175 169 167 163 162 162 159 161 168 171 169 168 168 166 167 173 179 179 178 178 177 177 179 180 182 182 181 179 178 176 175 171 168 166 167 170 171 170 169 170 172 176 181 190 200 209 215 208 195 198 210 221 231 240 241 216
201 200 187 198 178 176 202 209 178 172 167 200 205 192 222 201 150 155 167 158 163 215 301 293 168 217 223 266 175 163 158 153 147 146 150 154 157 160 166 173 174 172 168 166 168 172 175 176 176 176 175 175 179 179 180 183 182 180 177 174 172 169 166 167 169 171 171 170 171 174 179 186 194 203 212 215 213 205 198 202 214 225 232 236 223 183
205 192 171 191 192 181 196 204 187 181 170 189 200 204 226 191 144 146 168 142 112 132 276 250 273 291 294 339 99 140 139 135 133 140 149 155 159 161 167 175 178 176 172 169 169 171 173 176 179 179 176 176 179 178 179 183 183 180 176 172 169 167 167 170 171 171 170 170 172 177 184 194 202 208 213 212 205 202 203 209 218 222 223 220 185 122
191 161 174 191 198 189 194 205 212 192 166 167 199 215 226 212 166 125 134 160 143 166 274 241 248 275 248 321 125 139 148 154 142 142 148 152 158 164 169 175 179 178 172 168 168 171 174 176 178 179 178 178 179 179 180 182 181 179 176 172 172 171 170 172 171 170 171 172 174 180 188 195 201 204 206 203 201 206 210 210 212 210 201 157 109 97
182 144 177 189 180 183 190 193 296 248 195 173 176 195 193 185 217 173 134 163 165 171 297 273 245 228 175 219 162 147 159 160 144 143 147 150 157 163 166 172 177 174 168 165 167 172 175 176 176 176 177 177 178 180 181 180 179 177 175 174 174 173 171 171 170 171 173 177 181 185 191 197 203 203 200 199 205 211 210 206 197 176 142 114 104 101
179 131 158 173 147 146 181 163 212 251 235 194 169 177 187 160 167 184 162 158 152 161 216 274 259 250 231 194 164 153 154 150 146 148 152 156 158 159 162 167 171 168 167 168 169 173 175 174 175 174 173 175 178 179 179 178 177 176 174 174 174 172 171 170 171 174 178 182 186 190 195 202 205 200 195 196 200 200 201 197 167 134 120 112 109 106
153 117 125 151 136 147 195 207 194 197 208 201 172 165 189 191 168 184 214 173 143 147 175 206 254 265 255 190 161 153 147 147 150 151 157 161 158 159 161 163 166 166 167 170 171 171 169 167 172 175 174 176 177 176 176 176 176 174 173 174 175 173 172 172 174 180 183 183 187 196 203 204 197 191 191 190 186 188 190 169 135 125 121 116 113 113
130 124 133 158 171 177 198 206 200 209 202 187 169 161 174 174 154 162 258 226 143 142 164 169 220 262 272 214 164 154 149 152 155 153 158 162 159 162 164 162 164 165 166 169 170 168 165 166 173 176 173 173 175 176 174 173 172 171 170 173 175 175 175 176 179 183 184 185 191 201 205 198 187 185 187 181 180 185 174 142 130 128 126 121 123 135
116 110 135 163 189 185 185 191 206 231 216 175 186 190 166 174 157 139 186 218 190 179 162 144 195 252 282 274 174 157 155 158 158 156 158 162 162 162 163 162 163 164 166 168 169 170 168 169 173 174 171 171 174 175 173 170 169 169 170 172 175 176 176 178 182 185 186 189 196 200 195 186 181 185 186 180 183 181 155 136 130 127 126 129 143 159
99 96 132 150 173 175 179 191 210 235 232 176 198 203 166 186 183 154 174 186 179 197 162 128 189 247 290 303 136 127 137 149 155 155 153 155 157 157 159 160 159 159 162 165 169 172 172 171 172 173 172 172 171 171 170 170 171 172 174 176 179 180 180 184 188 188 189 193 196 193 184 180 184 187 182 176 177 167 146 138 131 127 132 145 161 170
174 133 122 139 154 161 171 198 218 227 234 187 190 196 192 188 178 193 224 113 121 221 153 125 193 247 287 332 53 77 97 128 143 146 146 148 150 153 155 156 155 155 157 163 169 172 175 176 175 173 172 170 166 165 167 170 172 175 177 180 184 186 187 191 194 191 193 197 194 187 182 182 186 184 176 172 165 150 142 140 136 137 147 161 171 178
178 172 109 138 163 167 177 202 207 203 221 246 180 188 209 211 186 197 217 91 180 244 139 127 188 253 306 9 53 72 95 120 130 133 141 146 149 151 150 152 155 155 157 164 169 171 175 178 175 171 171 168 166 165 167 170 173 174 176 180 185 191 192 194 195 193 196 198 190 184 181 178 179 179 172 165 152 143 142 141 142 149 163 172 180 185
131 173 132 125 159 179 178 194 141 136 157 219 204 193 213 234 200 165 137 146 187 219 230 194 163 148 340 30 62 77 98 112 112 105 111 121 131 140 145 150 156 157 159 166 169 169 174 177 174 170 167 168 169 169 170 173 174 175 178 182 187 194 196 194 194 196 199 198 189 182 178 174 175 174 165 155 147 144 140 139 146 162 174 178 185 189
76 176 192 145 187 192 167 163 164 175 189 200 204 198 214 235 214 133 162 198 162 128 249 236 134 127 202 112 100 102 106 114 116 110 115 121 129 139 144 148 155 156 158 165 168 170 175 176 172 167 165 167 169 169 171 174 177 179 182 186 190 196 197 195 195 196 196 193 186 179 179 179 176 173 163 151 142 136 135 141 155 170 176 177 183 184
91 173 188 170 265 235 179 187 176 179 204 220 213 202 211 230 213 144 193 200 130 126 212 205 134 144 201 158 127 135 135 132 135 135 138 141 141 145 147 149 155 156 156 162 168 174 178 176 170 166 168 170 169 169 171 173 176 180 184 189 195 197 198 196 192 189 187 185 181 181 184 179 174 172 160 144 136 136 144 155 165 173 177 177 174 168
84 189 160 116 301 298 231 210 183 176 194 217 221 214 214 226 204 150 199 210 139 145 171 150 134 168 218 171 147 149 143 136 134 133 137 142 144 149 152 153 157 159 160 162 166 173 176 172 168 167 168 169 170 170 171 171 174 180 186 193 197 197 198 196 188 183 182 180 180 184 183 176 173 169 153 141 142 150 159 168 174 179 185 185 174 163
76 277 340 69 15 292 304 247 174 178 182 192 218 227 218 221 207 159 192 230 172 173 149 114 108 320 280 142 136 137 130 127 128 131 136 143 147 152 155 156 157 159 161 162 163 167 168 165 169 171 169 169 171 171 171 172 176 184 192 197 199 199 198 193 183 179 180 181 184 186 181 176 173 162 149 147 153 160 166 173 180 182 184 182 173 162
90 33 337 53 70 268 6 43 51 152 155 175 212 229 214 207 201 172 173 192 185 178 121 77 82 204 145 116 120 129 126 124 128 136 142 148 153 157 159 157 156 160 163 166 167 167 164 162 166 170 170 173 176 174 175 178 183 191 196 198 200 202 197 187 179 178 180 183 185 182 176 172 164 152 149 153 159 164 169 175 178 180 181 177 169 161
113 83 353 97 114 294 37 61 32 42 86 179 228 239 221 196 170 159 164 163 166 152 133 130 175 175 149 124 125 133 130 130 138 143 149 157 163 167 167 165 167 169 169 168 170 170 167 164 165 167 170 175 178 178 181 187 192 195 197 200 204 202 192 181 177 179 180 182 182 178 172 163 153 148 150 154 159 164 171 175 179 184 181 173 165 160
114 117 271 158 119 19 40 59 39 51 88 226 248 260 248 186 162 166 181 176 171 144 130 140 154 155 143 134 142 152 150 147 151 155 158 164 170 175 177 179 179 174 169 170 173 173 169 167 167 168 169 173 176 177 181 190 195 195 198 204 204 196 185 179 178 179 180 179 178 175 167 155 149 151 155 158 163 168 174 179 182 182 177 169 164 160
97 119 263 295 103 85 43 51 50 67 205 248 266 294 335 114 154 167 193 193 176 159 127 118 140 154 143 136 142 147 149 150 154 160 164 167 172 177 181 186 185 176 171 173 175 173 170 167 167 167 168 170 172 173 178 189 194 195 200 203 198 187 180 179 179 178 177 176 173 168 160 152 151 156 160 164 169 173 179 182 180 176 172 168 164 162
119 127 285 24 83 85 52 71 115 203 260 288 310 330 3 28 104 159 195 230 184 160 141 134 150 153 125 127 138 144 151 152 150 159 168 170 172 176 178 183 186 183 181 180 176 173 171 170 169 168 168 169 170 173 180 190 195 198 200 198 190 181 178 179 179 176 174 173 168 161 155 154 158 163 166 169 171 175 178 179 177 174 171 167 164 164
138 127 87 48 67 115 108 119 162 0 332 316 320 331 43 29 239 163 169 259 227 160 152 150 136 119 116 127 137 142 143 139 129 150 167 168 170 175 177 179 181 184 187 187 183 177 173 172 172 171 171 171 173 177 186 193 197 198 195 190 183 179 178 178 175 172 169 164 158 154 156 160 165 168 169 170 172 174 176 178 178 175 170 168 167 167
168 168 136 97 41 112 105 95 37 37 313 262 274 304 0 327 285 131 109 313 304 118 162 167 138 122 125 127 132 134 131 128 133 176 170 166 168 173 175 175 176 179 183 183 179 176 175 174 174 175 175 177 179 185 193 196 196 195 190 183 178 176 173 170 167 163 159 155 154 159 165 168 171 171 170 171 174 176 177 179 178 172 169 171 170 168
193 162 103 90 53 95 103 113 138 163 237 244 268 315 334 341 338 46 94 301 311 345 353 186 151 141 141 141 141 136 126 136 207 198 177 174 175 174 171 171 175 178 179 178 176 175 174 173 174 175 179 183 186 189 193 193 192 192 189 183 177 172 168 165 162 159 156 157 162 170 174 175 176 174 173 175 177 177 178 179 175 170 170 172 172 168
199 70 71 84 89 171 139 136 170 220 250 247 252 300 315 348 23 69 131 240 288 346 358 2 154 154 151 150 152 150 144 171 193 187 177 174 174 176 173 170 172 174 173 174 177 177 176 175 176 177 179 184 188 190 191 189 187 189 189 183 174 170 168 166 163 160 160 165 172 176 177 178 178 177 178 179 178 179 180 179 175 170 169 171 171 170
47 60 107 121 68 248 152 114 0 269 267 258 252 0 8 28 55 103 195 244 287 358 11 47 147 158 157 153 149 141 147 172 174 169 166 165 167 173 175 172 173 174 172 172 174 176 176 178 180 180 181 185 187 187 187 187 187 188 186 177 170 168 167 165 162 163 166 171 175 176 178 179 178 178 181 181 181 182 182 178 174 171 172 173 173 170
134 53 104 131 177 270 162 110 58 290 280 259 47 34 39 62 96 202 223 326 28 39 49 82 121 137 141 137 129 123 132 149 155 154 155 161 165 168 169 169 170 172 173 173 174 175 174 174 175 177 180 184 186 184 184 186 187 186 180 173 168 165 163 162 164 168 171 174 177 177 177 178 179 181 183 184 186 184 177 173 174 174 175 174 170 166
171 131 110 191 185 245 100 88 96 243 266 208 95 36 31 96 178 219 48 53 58 66 76 90 102 108 117 125 128 130 135 140 145 148 153 160 165 166 169 170 169 170 173 174 174 174 173 171 171 173 177 179 180 179 180 183 184 181 176 171 165 160 160 164 170 174 175 176 178 177 176 177 181 184 186 188 187 180 170 170 174 176 175 172 166 164
205 143 186 234 216 105 134 138 179 232 272 88 109 114 82 93 102 96 75 67 70 78 85 91 97 106 118 126 131 134 137 140 145 151 157 160 163 167 169 170 170 172 174 175 175 175 174 172 172 174 176 177 177 177 179 183 182 176 172 167 162 160 164 170 174 175 175 175 175 175 177 179 182 186 189 188 181 172 167 169 174 174 173 169 165 165
287 145 147 125 23 85 126 113 295 316 61 79 91 95 88 83 82 85 82 76 79 91 99 96 92 100 114 124 131 137 141 145 149 156 161 160 162 167 169 171 173 174 173 173 174 175 174 173 174 174 175 177 178 178 181 184 179 171 166 163 162 164 169 173 174 174 173 173 174 177 180 181 184 189 189 181 173 170 170 174 176 174 171 168 167 167
161 118 131 118 74 74 75 56 13 346 48 78 83 80 81 83 83 85 82 78 86 101 111 110 106 107 114 125 135 141 148 153 154 159 164 161 161 166 169 172 175 175 173 171 170 172 173 173 173 173 173 175 177 178 180 182 179 172 164 162 164 169 173 175 176 176 174 176 179 181 182 184 187 189 183 174 172 176 179 180 178 173 169 167 167 166
5 24 33 103 106 91 49 57 48 327 350 65 81 76 74 78 80 83 80 79 92 103 109 118 122 118 120 129 134 138 151 159 158 158 161 162 164 167 169 172 174 176 176 174 171 172 174 173 171 171 172 174 178 181 181 180 179 176 170 166 169 174 176 177 179 178 177 179 181 181 183 188 187 181 174 172 176 181 182 180 176 170 166 166 165 163
332 1 7 49 87 93 109 125 116 86 23 60 80 76 69 77 83 86 83 82 91 100 105 116 124 124 125 128 132 141 153 160 159 159 161 165 169 171 171 173 175 177 178 177 175 176 176 174 173 174 176 178 181 184 184 182 182 181 176 173 174 177 178 178 179 179 179 180 181 183 188 189 182 174 173 175 177 179 175 170 167 164 161 162 164 165
304 327 347 59 83 90 100 114 108 93 55 53 68 68 65 76 83 84 85 86 89 93 96 100 106 117 120 114 133 153 159 160 162 163 165 168 171 172 173 175 178 179 179 178 178 179 179 178 177 178 179 183 186 188 188 187 186 184 181 178 178 179 179 179 180 181 181 182 185 189 189 184 178 175 176 176 174 172 167 163 163 163 162 161 165 170
14 312 339 92 97 105 157 205 149 124 89 53 63 66 63 70 79 81 81 80 83 84 86 89 97 115 124 119 136 152 156 161 166 168 170 172 173 174 176 177 178 179 180 181 182 184 185 184 184 184 185 188 192 192 190 187 187 186 183 180 180 180 180 181 182 184 184 186 189 189 185 179 178 179 178 177 174 170 166 165 168 171 171 170 170 176
34 21 37 113 131 170 190 174 131 119 107 82 78 80 69 65 85 94 86 81 85 83 81 93 104 113 121 131 150 161 162 164 168 171 173 174 177 180 181 180 179 177 177 180 182 183 185 186 186 187 189 191 192 193 193 189 186 185 184 182 181 182 184 186 186 186 186 189 190 187 183 181 181 180 179 178 176 173 171 171 173 175 177 178 176 179
Height
1454 1457 1455 1453 1452 1453 1453 1454 1455 1455 1454 1453 1453 1455 1457 1459 1458 1451 1447 1442 1440 1448 1451 1449 1452 1454 1456 1457 1456 1458 1461 1464 1467 1469 1473 1476 1478 1479 1481 1484 1487 1489 1490 1493 1497 1500 1503 1507 1508 1510 1511 1512 1517 1519 1520 1520 1521 1521 1522 1523 1526 1528 1531 1532 1534 1535 1537 1539 1540 1543 1544 1546 1548 1549 1550 1551 1552 1553 1554 1555 1555 1555 1556 1556 1558 1560
1452 1453 1450 1448 1449 1449 1451 1452 1452 1453 1452 1451 1452 1453 1453 1454 1452 1446 1442 1437 1436 1443 1447 1446 1449 1453 1453 1455 1455 1456 1460 1463 1464 1466 1471 1474 1477 1479 1480 1483 1486 1489 1490 1492 1495 1499 1502 1505 1507 1509 1510 1512 1514 1516 1517 1518 1519 1521 1521 1522 1524 1526 1529 1531 1532 1534 1536 1538 1540 1542 1543 1545 1547 1548 1550 1550 1552 1553 1554 1554 1555 1554 1555 1556 1557 1558
1449 1447 1445 1446 1446 1447 1449 1450 1450 1451 1450 1450 1450 1453 1455 1451 1447 1443 1437 1433 1433 1439 1443 1445 1449 1452 1451 1451 1453 1453 1456 1461 1461 1461 1466 1470 1474 1477 1479 1481 1484 1487 1489 1490 1493 1498 1502 1505 1506 1508 1510 1512 1513 1514 1515 1517 1518 1520 1521 1523 1524 1525 1527 1529 1531 1534 1535 1537 1539 1541 1542 1544 1545 1547 1549 1550 1551 1552 1553 1553 1553 1553 1554 1556 1556 1556
1447 1444 1443 1443 1444 1445 1446 1447 1449 1451 1450 1449 1449 1454 1455 1449 1448 1446 1437 1430 1430 1433 1438 1443 1448 1449 1450 1452 1454 1454 1457 1461 1463 1463 1465 1468 1471 1474 1477 1480 1482 1484 1487 1489 1493 1497 1501 1504 1506 1508 1510 1512 1512 1512 1513 1515 1517 1519 1521 1523 1524 1525 1526 1528 1531 1533 1534 1536 1538 1539 1541 1543 1545 1547 1548 1549 1550 1551 1552 1552 1552 1553 1554 1555 1555 1556
1442 1440 1440 1441 1441 1442 1444 1446 1447 1451 1452 1448 1446 1450 1451 1446 1445 1442 1433 1429 1431 1432 1432 1441 1452 1452 1452 1456 1458 1458 1460 1464 1466 1467 1469 1470 1472 1475 1478 1480 1483 1484 1485 1488 1492 1497 1500 1503 1507 1509 1511 1512 1511 1510 1512 1514 1517 1519 1521 1523 1524 1525 1527 1528 1530 1532 1533 1535 1536 1538 1540 1542 1544 1546 1547 1548 1549 1549 1550 1551 1552 1553 1554 1555 1555 1555
1437 1436 1437 1438 1437 1438 1442 1443 1443 1447 1452 1449 1442 1442 1443 1441 1440 1436 1429 1431 1441 1444 1433 1437 1459 1463 1454 1455 1458 1458 1463 1468 1470 1469 1470 1472 1473 1476 1478 1480 1482 1485 1487 1490 1493 1497 1500 1504 1508 1510 1511 1513 1513 1511 1512 1514 1517 1519 1521 1523 1524 1525 1527 1528 1530 1531 1533 1534 1536 1537 1539 1541 1542 1544 1545 1546 1547 1547 1548 1549 1550 1552 1553 1554 1554 1554
1433 1432 1433 1434 1435 1436 1439 1440 1438 1440 1449 1450 1440 1436 1438 1437 1439 1436 1432 1436 1447 1449 1435 1432 1452 1466 1463 1459 1456 1458 1464 1470 1471 1471 1472 1472 1473 1475 1478 1481 1483 1486 1489 1493 1497 1499 1501 1504 1507 1510 1511 1513 1514 1514 1514 1515 1518 1520 1522 1523 1524 1525 1526 1527 1529 1531 1533 1534 1536 1537 1538 1540 1541 1542 1543 1545 1546 1546 1547 1548 1550 1551 1552 1552 1553 1553
1426 1428 1430 1431 1433 1435 1437 1437 1433 1434 1444 1446 1435 1432 1435 1435 1438 1438 1436 1439 1440 1439 1436 1432 1439 1457 1468 1464 1457 1459 1467 1472 1472 1472 1473 1472 1473 1476 1479 1483 1485 1487 1489 1493 1499 1502 1504 1506 1507 1510 1512 1513 1515 1516 1516 1516 1518 1520 1522 1523 1524 1525 1526 1527 1528 1530 1532 1534 1535 1537 1538 1539 1541 1542 1543 1544 1544 1545 1546 1547 1549 1551 1551 1552 1553 1553
1422 1425 1427 1429 1432 1433 1431 1431 1429 1430 1437 1437 1430 1430 1432 1432 1434 1434 1436 1438 1434 1437 1444 1437 1435 1454 1469 1464 1459 1463 1470 1475 1474 1471 1471 1470 1472 1476 1479 1482 1484 1486 1488 1491 1497 1503 1506 1508 1509 1511 1512 1513 1515 1517 1517 1517 1519 1521 1523 1524 1525 1526 1526 1527 1528 1530 1532 1534 1535 1537 1538 1540 1541 1542 1543 1543 1543 1545 1546 1547 1549 1550 1551 1552 1552 1552
1420 1421 1422 1425 1428 1427 1426 1426 1426 1427 1431 1430 1429 1429 1428 1429 1430 1431 1436 1437 1436 1445 1451 1441 1435 1453 1472 1468 1462 1467 1470 1472 1472 1469 1468 1468 1471 1475 1477 1479 1481 1484 1487 1489 1493 1500 1506 1509 1511 1512 1512 1513 1515 1516 1517 1518 1520 1522 1523 1524 1525 1525 1526 1527 1528 1529 1531 1534 1535 1537 1538 1539 1541 1542 1543 1543 1543 1544 1546 1547 1549 1550 1551 1552 1551 1552
1416 1417 1418 1418 1421 1422 1423 1424 1423 1424 1427 1427 1429 1430 1429 1428 1428 1431 1434 1434 1445 1455 1450 1439 1431 1443 1469 1472 1462 1459 1457 1458 1463 1467 1467 1467 1471 1475 1477 1477 1478 1480 1483 1486 1490 1497 1504 1507 1510 1512 1512 1513 1515 1516 1517 1519 1520 1521 1522 1523 1524 1525 1526 1526 1528 1529 1531 1533 1535 1536 1538 1539 1540 1541 1542 1542 1543 1544 1546 1547 1549 1550 1551 1550 1551 1551
1413 1415 1414 1411 1415 1419 1421 1423 1422 1422 1424 1426 1428 1430 1435 1436 1434 1438 1438 1439 1456 1462 1445 1433 1427 1435 1459 1467 1457 1447 1441 1443 1451 1457 1461 1465 1470 1474 1475 1476 1476 1477 1480 1483 1486 1493 1501 1505 1508 1511 1512 1513 1515 1515 1516 1518 1519 1521 1522 1523 1523 1524 1525 1526 1528 1529 1531 1532 1534 1536 1537 1538 1539 1540 1541 1542 1542 1543 1545 1547 1548 1550 1550 1550 1550 1551
1413 1411 1409 1410 1413 1414 1418 1423 1423 1422 1422 1425 1427 1432 1444 1448 1449 1453 1452 1450 1457 1454 1435 1424 1427 1437 1445 1445 1441 1439 1437 1440 1443 1446 1452 1459 1467 1472 1474 1475 1475 1476 1478 1480 1483 1489 1496 1501 1504 1508 1510 1511 1513 1515 1516 1518 1519 1520 1521 1522 1523 1524 1526 1527 1528 1529 1531 1532 1534 1535 1536 1537 1538 1539 1540 1541 1541 1543 1544 1546 1548 1549 1549 1550 1550 1549
1418 1412 1407 1409 1410 1409 1412 1418 1424 1424 1422 1424 1426 1434 1446 1452 1458 1465 1461 1457 1457 1447 1430 1421 1430 1442 1438 1427 1426 1430 1431 1434 1437 1442 1447 1453 1461 1467 1470 1472 1473 1474 1475 1477 1480 1485 1491 1496 1500 1504 1507 1508 1510 1513 1515 1517 1519 1520 1521 1522 1523 1525 1526 1527 1528 1529 1531 1532 1533 1535 1536 1537 1538 1539 1540 1540 1541 1542 1544 1546 1547 1548 1549 1549 1549 1548
1423 1419 1407 1404 1405 1404 1407 1410 1415 1418 1420 1422 1420 1427 1438 1440 1450 1462 1459 1457 1459 1449 1434 1429 1436 1443 1436 1423 1418 1420 1424 1429 1435 1442 1448 1453 1458 1463 1466 1468 1469 1471 1474 1477 1479 1483 1488 1493 1498 1502 1504 1506 1508 1511 1514 1516 1518 1520 1520 1522 1523 1524 1526 1527 1528 1529 1530 1532 1533 1534 1536 1537 1538 1539 1539 1540 1540 1542 1543 1545 1547 1548 1548 1549 1548 1548
1418 1415 1400 1398 1400 1401 1406 1407 1406 1413 1421 1421 1416 1424 1432 1428 1432 1445 1447 1445 1449 1451 1442 1436 1436 1430 1422 1416 1411 1415 1425 1432 1439 1445 1450 1455 1458 1460 1463 1465 1466 1470 1474 1477 1479 1483 1487 1492 1497 1501 1502 1504 1506 1509 1512 1514 1517 1519 1520 1522 1523 1524 1526 1527 1528 1529 1530 1531 1532 1534 1535 1536 1537 1538 1539 1539 1540 1541 1543 1545 1546 1547 1548 1548 1548 1548
1414 1410 1396 1397 1400 1398 1404 1405 1402 1411 1420 1419 1420 1425 1424 1418 1421 1435 1444 1441 1444 1457 1450 1437 1435 1426 1420 1420 1414 1418 1430 1435 1441 1447 1449 1454 1457 1458 1460 1462 1466 1470 1474 1477 1479 1483 1487 1491 1495 1499 1500 1501 1504 1507 1510 1513 1516 1518 1520 1522 1523 1524 1525 1526 1527 1528 1530 1531 1532 1534 1535 1536 1537 1537 1538 1539 1540 1541 1542 1544 1545 1546 1547 1548 1548 1549
1406 1408 1397 1396 1402 1399 1399 1403 1402 1404 1409 1416 1423 1423 1416 1417 1421 1428 1443 1449 1453 1463 1452 1438 1439 1435 1432 1433 1424 1423 1433 1437 1442 1447 1449 1454 1457 1459 1459 1461 1465 1469 1473 1477 1480 1484 1487 1490 1494 1497 1499 1500 1502 1506 1509 1513 1516 1518 1520 1521 1523 1523 1524 1526 1527 1528 1530 1531 1532 1533 1534 1535 1536 1536 1537 1538 1539 1540 1541 1543 1544 1545 1546 1548 1549 1549
1397 1407 1401 1394 1400 1399 1396 1403 1408 1403 1402 1409 1415 1414 1416 1428 1433 1429 1440 1452 1459 1465 1458 1444 1440 1436 1434 1434 1428 1429 1433 1435 1441 1447 1449 1453 1457 1458 1459 1461 1465 1468 1473 1476 1480 1483 1486 1490 1494 1497 1498 1499 1502 1506 1509 1512 1515 1517 1520 1521 1522 1523 1524 1525 1527 1528 1529 1530 1531 1532 1533 1534 1535 1535 1537 1537 1538 1539 1541 1542 1543 1545 1547 1548 1549 1550
1392 1404 1406 1396 1394 1399 1399 1405 1413 1411 1405 1405 1409 1411 1413 1422 1430 1429 1432 1441 1452 1462 1462 1453 1446 1439 1430 1425 1424 1428 1430 1433 1440 1444 1447 1450 1453 1455 1457 1460 1463 1467 1472 1475 1478 1482 1485 1490 1494 1496 1498 1499 1501 1505 1508 1511 1514 1516 1519 1520 1521 1523 1524 1525 1527 1528 1529 1530 1530 1531 1532 1532 1533 1534 1535 1536 1537 1539 1540 1542 1543 1545 1547 1548 1549 1549
1389 1399 1407 1401 1396 1403 1406 1404 1409 1413 1411 1410 1413 1416 1416 1416 1420 1425 1427 1428 1437 1453 1459 1459 1457 1442 1423 1417 1419 1423 1425 1429 1435 1439 1444 1447 1449 1452 1455 1458 1463 1467 1471 1475 1478 1482 1486 1491 1494 1495 1497 1499 1501 1505 1508 1511 1514 1516 1518 1519 1521 1522 1523 1525 1526 1527 1528 1528 1529 1530 1530 1531 1532 1533 1534 1535 1537 1539 1540 1542 1544 1546 1547 1548 1549 1550
1390 1397 1407 1408 1405 1409 1408 1401 1402 1407 1407 1409 1413 1414 1416 1418 1422 1433 1438 1428 1426 1439 1446 1453 1457 1441 1419 1414 1415 1417 1420 1424 1428 1433 1439 1443 1445 1449 1452 1457 1462 1466 1470 1475 1478 1482 1485 1489 1492 1493 1495 1498 1501 1504 1508 1511 1513 1515 1517 1519 1520 1521 1523 1524 1525 1526 1526 1527 1528 1528 1529 1530 1531 1532 1534 1535 1536 1538 1540 1542 1544 1546 1547 1548 1549 1550
1386 1394 1405 1411 1409 1407 1405 1400 1401 1403 1402 1404 1408 1409 1410 1415 1421 1434 1442 1433 1427 1431 1432 1440 1450 1437 1418 1413 1412 1413 1416 1418 1422 1427 1432 1439 1443 1446 1451 1456 1461 1465 1469 1473 1477 1480 1483 1486 1489 1492 1495 1498 1500 1503 1507 1510 1512 1514 1516 1517 1519 1520 1522 1523 1524 1524 1525 1526 1526 1527 1528 1529 1531 1532 1533 1535 1536 1538 1540 1542 1544 1546 1547 1548 1549 1550
1386 1393 1404 1411 1408 1404 1402 1400 1399 1400 1401 1404 1406 1406 1408 1412 1415 1421 1426 1425 1428 1431 1430 1442 1452 1437 1419 1413 1411 1411 1415 1418 1422 1425 1429 1437 1443 1446 1452 1457 1461 1466 1469 1473 1476 1479 1484 1486 1487 1490 1494 1497 1499 1502 1505 1509 1511 1513 1515 1516 1518 1519 1520 1521 1522 1523 1523 1524 1525 1526 1527 1528 1530 1531 1533 1534 1536 1538 1540 1542 1544 1546 1547 1547 1548 1549
1392 1396 1402 1412 1417 1415 1413 1411 1407 1403 1403 1406 1405 1404 1407 1409 1410 1416 1418 1419 1428 1430 1428 1441 1451 1437 1421 1416 1413 1413 1418 1422 1425 1428 1431 1436 1442 1448 1453 1457 1462 1466 1469 1472 1475 1478 1483 1486 1487 1489 1493 1496 1498 1501 1504 1507 1510 1511 1513 1515 1516 1518 1519 1520 1520 1521 1522 1522 1523 1524 1525 1527 1529 1531 1532 1534 1536 1538 1540 1542 1544 1546 1546 1546 1547 1548
1393 1396 1399 1410 1423 1427 1424 1419 1412 1406 1406 1407 1403 1403 1407 1408 1410 1416 1421 1426 1432 1428 1425 1436 1444 1436 1423 1419 1419 1419 1421 1425 1428 1431 1435 1437 1442 1447 1452 1457 1462 1465 1467 1470 1473 1477 1481 1484 1487 1490 1493 1496 1498 1499 1502 1505 1508 1509 1511 1513 1515 1516 1517 1518 1519 1520 1520 1521 1522 1523 1525 1527 1528 1530 1532 1534 1536 1538 1540 1542 1544 1545 1545 1545 1546 1547
1392 1394 1395 1403 1413 1416 1415 1409 1402 1402 1408 1411 1406 1404 1407 1408 1409 1414 1421 1429 1429 1425 1427 1431 1433 1432 1428 1425 1427 1426 1424 1427 1432 1436 1440 1443 1446 1450 1453 1458 1461 1464 1467 1469 1472 1476 1479 1482 1486 1489 1492 1495 1497 1499 1501 1503 1506 1508 1510 1511 1513 1515 1516 1517 1518 1519 1519 1520 1521 1523 1524 1526 1528 1530 1532 1534 1537 1539 1541 1543 1544 1544 1544 1545 1546 1546
1394 1398 1397 1399 1404 1403 1402 1401 1399 1401 1407 1410 1409 1408 1408 1407 1409 1415 1422 1423 1421 1426 1434 1430 1425 1430 1431 1428 1431 1432 1429 1430 1433 1436 1440 1443 1446 1450 1454 1458 1461 1464 1466 1468 1471 1475 1478 1481 1485 1488 1490 1493 1496 1498 1500 1503 1505 1507 1508 1510 1512 1514 1515 1517 1517 1518 1518 1519 1520 1522 1524 1526 1527 1529 1532 1535 1537 1540 1542 1544 1544 1544 1544 1545 1545 1546
1394 1401 1399 1400 1403 1400 1397 1398 1399 1402 1406 1407 1407 1409 1408 1406 1410 1417 1420 1416 1415 1424 1433 1429 1424 1426 1427 1426 1429 1430 1430 1431 1432 1435 1438 1440 1444 1449 1453 1457 1460 1462 1464 1466 1470 1473 1476 1481 1485 1488 1489 1491 1494 1497 1499 1502 1504 1506 1508 1510 1511 1513 1515 1516 1517 1517 1517 1518 1519 1521 1522 1524 1527 1529 1532 1535 1538 1540 1542 1543 1543 1543 1544 1544 1544 1545
1393 1399 1399 1400 1404 1403 1400 1399 1399 1402 1406 1408 1407 1408 1407 1406 1409 1415 1416 1413 1412 1418 1423 1425 1426 1425 1423 1423 1425 1426 1427 1430 1432 1435 1438 1441 1445 1448 1452 1456 1458 1461 1464 1465 1468 1472 1476 1480 1485 1489 1491 1492 1493 1495 1497 1500 1502 1504 1507 1509 1511 1514 1515 1516 1516 1516 1517 1517 1518 1520 1521 1523 1526 1528 1532 1535 1538 1540 1542 1543 1542 1543 1543 1543 1543 1544
1394 1400 1399 1400 1407 1407 1401 1399 1399 1400 1405 1408 1408 1408 1407 1407 1409 1412 1414 1413 1413 1416 1419 1421 1426 1429 1425 1423 1425 1427 1428 1430 1434 1438 1440 1443 1445 1448 1452 1455 1458 1462 1466 1468 1470 1473 1476 1480 1484 1488 1490 1494 1496 1495 1496 1498 1500 1503 1506 1509 1512 1514 1515 1516 1516 1516 1516 1517 1517 1518 1520 1522 1525 1528 1531 1534 1537 1540 1541 1541 1541 1542 1542 1542 1543 1544
1396 1402 1402 1402 1412 1412 1402 1401 1403 1401 1403 1409 1410 1409 1408 1408 1409 1411 1412 1413 1413 1416 1419 1422 1427 1432 1429 1425 1428 1430 1430 1432 1436 1439 1442 1444 1446 1448 1452 1455 1459 1462 1465 1468 1470 1472 1475 1479 1482 1484 1486 1491 1495 1495 1495 1497 1499 1502 1506 1509 1512 1513 1514 1515 1515 1516 1517 1518 1519 1519 1519 1520 1523 1527 1531 1534 1536 1538 1539 1540 1540 1541 1541 1541 1542 1543
1396 1403 1406 1407 1414 1412 1403 1403 1405 1405 1412 1418 1414 1411 1409 1407 1407 1409 1410 1411 1411 1413 1419 1423 1427 1429 1427 1426 1430 1433 1433 1434 1436 1438 1440 1443 1446 1448 1451 1453 1456 1458 1460 1464 1467 1471 1475 1478 1481 1483 1483 1486 1490 1493 1496 1498 1500 1503 1507 1510 1512 1512 1513 1514 1515 1516 1518 1519 1521 1522 1522 1522 1523 1526 1530 1533 1535 1536 1537 1538 1539 1540 1540 1541 1542 1543
1398 1403 1407 1406 1410 1412 1407 1403 1407 1415 1426 1425 1414 1410 1409 1405 1405 1408 1410 1411 1411 1411 1415 1419 1422 1424 1424 1425 1428 1431 1433 1434 1435 1436 1437 1440 1443 1447 1449 1451 1453 1456 1459 1461 1463 1467 1473 1478 1482 1484 1484 1486 1490 1494 1497 1500 1502 1505 1507 1509 1510 1511 1512 1514 1515 1516 1518 1519 1521 1523 1526 1526 1525 1526 1529 1532 1534 1535 1536 1537 1538 1539 1539 1540 1541 1543
1400 1405 1406 1404 1407 1412 1410 1410 1421 1431 1429 1418 1409 1407 1405 1402 1402 1406 1408 1409 1409 1411 1413 1416 1420 1422 1423 1424 1425 1428 1431 1432 1434 1437 1437 1438 1440 1443 1446 1449 1451 1454 1458 1461 1463 1466 1471 1476 1480 1483 1485 1488 1491 1494 1497 1500 1502 1505 1506 1507 1508 1510 1512 1513 1515 1516 1517 1519 1520 1523 1526 1527 1527 1527 1529 1531 1533 1534 1534 1535 1537 1538 1539 1540 1541 1543
1400 1405 1406 1405 1409 1415 1417 1422 1432 1432 1421 1411 1409 1406 1403 1404 1405 1408 1411 1411 1408 1409 1412 1416 1420 1421 1421 1423 1425 1427 1430 1432 1435 1437 1439 1440 1441 1442 1445 1448 1450 1452 1455 1458 1462 1466 1470 1474 1477 1481 1485 1487 1490 1493 1496 1499 1501 1502 1503 1504 1506 1509 1511 1513 1514 1515 1516 1518 1519 1521 1524 1526 1527 1527 1528 1530 1531 1532 1533 1535 1536 1537 1538 1539 1541 1542
1399 1403 1407 1409 1412 1415 1422 1426 1426 1424 1420 1416 1413 1410 1409 1411 1411 1411 1414 1414 1409 1408 1410 1414 1419 1422 1422 1424 1424 1426 1429 1432 1437 1439 1440 1442 1444 1445 1446 1448 1450 1453 1455 1458 1463 1466 1470 1473 1476 1480 1484 1487 1490 1493 1495 1497 1499 1500 1501 1503 1506 1508 1510 1511 1513 1514 1515 1517 1518 1521 1523 1525 1527 1527 1528 1529 1530 1532 1533 1534 1535 1537 1538 1539 1540 1542
1398 1401 1405 1412 1414 1414 1420 1426 1427 1430 1429 1422 1415 1411 1409 1411 1410 1408 1413 1417 1413 1410 1410 1412 1418 1422 1423 1425 1427 1427 1429 1435 1439 1440 1440 1443 1445 1446 1449 1451 1452 1454 1456 1460 1464 1467 1470 1473 1475 1479 1483 1486 1489 1492 1493 1495 1497 1500 1503 1504 1505 1507 1508 1510 1511 1513 1514 1516 1518 1520 1523 1525 1526 1527 1528 1529 1530 1531 1533 1534 1535 1536 1538 1539 1541 1542
1398 1401 1403 1411 1416 1415 1420 1427 1431 1432 1427 1419 1414 1410 1407 1410 1408 1408 1417 1423 1419 1414 1413 1411 1416 1420 1421 1424 1427 1427 1431 1438 1440 1438 1438 1441 1443 1445 1448 1450 1453 1455 1458 1460 1464 1467 1470 1472 1475 1478 1481 1483 1486 1489 1491 1492 1495 1500 1503 1504 1505 1506 1507 1508 1510 1512 1514 1516 1518 1520 1522 1525 1526 1527 1528 1529 1530 1531 1532 1534 1535 1536 1538 1540 1541 1543
1402 1405 1407 1413 1417 1417 1420 1425 1428 1426 1420 1414 1412 1410 1409 1409 1408 1414 1429 1431 1421 1416 1415 1412 1414 1418 1418 1421 1425 1426 1429 1433 1435 1434 1436 1440 1443 1445 1447 1449 1452 1455 1458 1460 1463 1466 1469 1472 1475 1477 1479 1481 1484 1487 1490 1492 1495 1499 1501 1502 1504 1505 1506 1507 1509 1512 1514 1516 1518 1520 1522 1524 1526 1527 1528 1529 1530 1531 1532 1533 1535 1536 1538 1540 1541 1543
1406 1408 1410 1415 1419 1418 1419 1425 1428 1425 1418 1413 1411 1410 1409 1409 1414 1425 1434 1429 1419 1418 1416 1412 1414 1417 1418 1420 1424 1426 1427 1428 1429 1432 1436 1439 1442 1445 1447 1449 1452 1455 1458 1461 1463 1466 1469 1472 1474 1476 1478 1481 1484 1487 1490 1492 1495 1497 1499 1500 1502 1503 1505 1507 1510 1512 1514 1516 1517 1520 1522 1524 1525 1526 1527 1529 1530 1531 1532 1533 1535 1536 1538 1539 1541 1542
1411 1412 1413 1416 1420 1419 1417 1423 1431 1428 1417 1412 1412 1411 1410 1416 1425 1430 1428 1422 1419 1419 1416 1414 1416 1418 1420 1422 1424 1426 1427 1427 1429 1433 1436 1439 1442 1445 1447 1450 1452 1455 1458 1460 1463 1465 1468 1471 1473 1476 1478 1481 1484 1487 1489 1491 1493 1495 1497 1498 1500 1502 1505 1507 1509 1511 1514 1515 1517 1519 1521 1523 1524 1526 1527 1528 1529 1530 1532 1533 1535 1536 1537 1539 1540 1542
1409 1414 1417 1416 1417 1418 1417 1423 1433 1432 1419 1412 1414 1415 1415 1421 1427 1426 1422 1420 1420 1419 1418 1418 1418 1420 1422 1424 1425 1426 1427 1428 1431 1434 1436 1439 1442 1445 1448 1450 1452 1455 1458 1460 1463 1465 1468 1471 1474 1477 1479 1482 1484 1487 1488 1490 1492 1493 1495 1497 1500 1503 1505 1507 1509 1511 1513 1515 1517 1518 1520 1522 1524 1525 1527 1528 1529 1530 1531 1533 1534 1536 1537 1539 1540 1541
1407 1412 1417 1415 1413 1417 1422 1427 1430 1427 1418 1413 1416 1419 1420 1421 1422 1421 1421 1422 1421 1421 1421 1422 1421 1422 1423 1424 1426 1428 1428 1429 1432 1434 1436 1439 1442 1445 1448 1450 1452 1455 1458 1460 1463 1466 1469 1471 1474 1477 1480 1482 1484 1486 1488 1489 1490 1492 1494 1497 1500 1503 1505 1507 1508 1510 1512 1514 1516 1518 1520 1521 1523 1525 1526 1527 1529 1530 1531 1532 1534 1536 1537 1538 1539 1541
1410 1410 1413 1416 1416 1418 1424 1427 1425 1421 1417 1416 1417 1419 1420 1421 1422 1422 1422 1422 1422 1423 1424 1423 1424 1425 1424 1425 1428 1430 1431 1432 1433 1434 1437 1439 1442 1444 1447 1450 1453 1455 1458 1460 1463 1466 1469 1471 1474 1477 1480 1482 1484 1486 1487 1488 1490 1490 1492 1496 1499 1501 1504 1506 1507 1508 1511 1513 1515 1517 1519 1521 1523 1525 1526 1527 1529 1530 1530 1532 1533 1535 1537 1538 1539 1540
1411 1409 1409 1416 1420 1420 1423 1426 1426 1424 1422 1419 1419 1421 1421 1422 1423 1423 1424 1424 1425 1425 1425 1426 1426 1427 1427 1428 1430 1431 1433 1434 1434 1435 1438 1440 1442 1445 1447 1450 1453 1456 1458 1461 1463 1466 1469 1471 1474 1476 1479 1481 1483 1485 1485 1487 1488 1489 1491 1494 1498 1500 1503 1504 1506 1508 1510 1512 1514 1516 1518 1520 1522 1524 1525 1527 1529 1530 1531 1532 1533 1534 1536 1537 1538 1540
1410 1411 1412 1415 1418 1423 1428 1431 1431 1432 1429 1423 1421 1423 1423 1423 1425 1425 1426 1427 1427 1428 1428 1428 1428 1430 1431 1431 1431 1431 1433 1434 1434 1436 1438 1440 1443 1445 1447 1450 1454 1456 1459 1461 1464 1466 1468 1471 1474 1476 1478 1481 1483 1484 1485 1487 1489 1491 1493 1494 1497 1499 1501 1503 1505 1507 1509 1511 1513 1515 1517 1519 1521 1523 1525 1527 1529 1530 1531 1532 1533 1534 1535 1536 1538 1539
1414 1416 1418 1418 1420 1426 1430 1431 1431 1433 1431 1426 1424 1425 1425 1426 1427 1427 1427 1429 1429 1429 1430 1430 1430 1431 1431 1431 1431 1432 1433 1434 1435 1437 1438 1440 1443 1445 1447 1451 1454 1457 1460 1462 1464 1466 1468 1471 1473 1475 1478 1480 1482 1484 1487 1489 1491 1494 1495 1495 1496 1498 1500 1502 1504 1507 1508 1510 1512 1514 1516 1518 1519 1521 1524 1526 1527 1529 1530 1531 1532 1533 1534 1536 1537 1537
1419 1421 1421 1421 1425 1429 1431 1429 1428 1429 1430 1428 1426 1427 1428 1428 1429 1429 1429 1430 1430 1430 1431 1431 1431 1431 1431 1432 1432 1432 1434 1435 1436 1437 1439 1441 1443 1445 1448 1451 1453 1456 1459 1462 1464 1466 1468 1470 1473 1475 1477 1479 1480 1483 1486 1488 1490 1492 1494 1495 1495 1496 1499 1501 1504 1506 1508 1509 1511 1513 1515 1517 1519 1520 1522 1523 1525 1527 1529 1531 1532 1533 1534 1535 1536 1537
1422 1424 1422 1422 1427 1431 1431 1429 1428 1429 1430 1430 1429 1429 1430 1430 1430 1431 1431 1431 1431 1432 1432 1432 1432 1433 1433 1434 1434 1434 1435 1437 1438 1439 1440 1442 1444 1446 1449 1451 1454 1456 1458 1460 1464 1466 1468 1470 1472 1474 1475 1477 1478 1481 1483 1486 1488 1491 1493 1494 1494 1495 1497 1499 1502 1504 1506 1508 1510 1512 1513 1515 1517 1519 1521 1522 1523 1525 1527 1530 1532 1533 1534 1535 1536 1538
1424 1424 1422 1422 1426 1428 1429 1428 1427 1428 1430 1431 1431 1431 1432 1432 1432 1432 1432 1433 1433 1433 1434 1434 1434 1434 1435 1436 1436 1436 1437 1438 1440 1441 1442 1444 1446 1448 1449 1452 1454 1456 1458 1460 1462 1465 1467 1469 1471 1472 1474 1476 1478 1480 1483 1485 1488 1490 1492 1493 1494 1495 1496 1498 1500 1502 1504 1506 1508 1510 1512 1514 1516 1518 1519 1520 1522 1524 1526 1528 1530 1532 1534 1535 1537 1538